User: anonymous
Location: Weston
(26.1283°N, 80.4075°W)
Time: 23:33:58
(UTC-04:00)
Language:

H-2A R/B - Orbit

View from above orbital plane
View from above orbital plane
View from above satellite
View from above satellite

Ground track
Ground track

The orbit data is extracted from the following two-line orbital elements,

1 26899U 01038B   14231.06602667  .00000415  00000-0  38521-3 0   308
2 26899 028.0256 122.2680 7139640 228.4666 343.8443 02.43755183111060
Epoch (UTC): 19 August 2014 01:35:04
Eccentricity: 0.7139640
inclination: 28.0256°
perigee height: 293 km
apogee height: 33594 km
right ascension of ascending node: 122.2680°
argument of perigee: 228.4666°
revolutions per day: 2.43755183
mean anomaly at epoch: 343.8443°
orbit number at epoch: 11106

The dashed part of the orbit path shows where the satellite is in the earth's shadow,  

DLR